El Granada, CA

8:31 PM PDT on July 24, 2016 (GMT -0700)
Half Moon Bay

Weather History for KHAF - March, 2014

Change the Weather History Date:

Wednesday, March 26, 2014

  Actual Average Record
Temperature  
Mean Temperature 54 °F -  
Max Temperature 57 °F 60 °F 68 °F (2015)
Min Temperature 50 °F 43 °F 39 °F (2012)
Degree Days  
Heating Degree Days 12    
Growing Degree Days 4 (Base 50)    
Moisture  
Dew Point 51 °F    
Average Humidity 89    
Maximum Humidity 94    
Minimum Humidity 77    
Precipitation  
Precipitation 0.26 in - - ()
Sea Level Pressure  
Sea Level Pressure 29.89 in    
Wind  
Wind Speed 8 mph (WSW)    
Max Wind Speed 14 mph    
Max Gust Speed 21 mph    
Visibility 4 miles    
Events Rain    
Averages and records for this station are not official NWS values.
T = Trace of Precipitation, MM = Missing Value Source: NWS Daily Summary

Daily Weather History Graph

Daily Weather History Graph

Search for Another Location

Airport or City:

Trip Planner

Search our weather history database for the weather conditions in past years. The results will help you decide how hot, cold, wet, or windy it might be!

Date:

Astronomy

Mar. 26, 2014 Rise Set
Actual Time 7:04 AM PDT 7:27 PM PDT
Civil Twilight 6:38 AM PDT 7:53 PM PDT
Nautical Twilight 6:07 AM PDT 8:24 PM PDT
Astronomical Twilight 5:36 AM PDT 8:55 PM PDT
Moon 4:11 AM PDT (3/26) 3:16 PM PDT (3/26)
Length of Visible Light 13h 15m
Length of Day
12h 23m
Waning Crescent, 21% of the Moon is Illuminated
Mar 26
Waning Crescent
Mar 30
New
Apr 7
First Quarter
Apr 15
Full
Apr 22
Last Quarter

Hourly Weather History & Observations

Time (PDT) Temp. Dew Point Humidity Pressure Visibility Wind Dir Wind Speed Gust Speed Precip Events Conditions
12:15 AM 53.6 °F 51.8 °F 94% 29.89 in 5.0 mi West 8.1 mph - N/A   Mostly Cloudy
12:35 AM 53.6 °F 51.8 °F 94% 29.89 in 4.0 mi West 8.1 mph - N/A   Overcast
12:55 AM 53.6 °F 51.8 °F 94% 29.88 in 4.0 mi WSW 5.8 mph - N/A   Overcast
1:15 AM 53.6 °F 51.8 °F 94% 29.88 in 4.0 mi West 6.9 mph - N/A   Overcast
1:35 AM 53.6 °F 51.8 °F 94% 29.88 in 3.0 mi West 5.8 mph - N/A   Overcast
1:55 AM 53.6 °F 51.8 °F 94% 29.88 in 4.0 mi WSW 5.8 mph - N/A   Mostly Cloudy
2:15 AM 53.6 °F 51.8 °F 94% 29.88 in 4.0 mi WSW 5.8 mph - N/A   Overcast
2:35 AM 53.6 °F 51.8 °F 94% 29.88 in 4.0 mi SW 5.8 mph - N/A   Overcast
2:55 AM 53.6 °F 51.8 °F 94% 29.87 in 5.0 mi SSW 4.6 mph - N/A   Overcast
3:15 AM 53.6 °F 51.8 °F 94% 29.86 in 5.0 mi South 3.5 mph - N/A   Overcast
3:35 AM 53.6 °F 51.8 °F 94% 29.85 in 4.0 mi South 4.6 mph - N/A   Overcast
3:55 AM 53.6 °F 51.8 °F 94% 29.85 in 5.0 mi SW 5.8 mph - N/A   Overcast
4:15 AM 53.6 °F 51.8 °F 94% 29.84 in 5.0 mi SSW 5.8 mph - N/A   Overcast
4:35 AM 53.6 °F 51.8 °F 94% 29.84 in 5.0 mi SSW 4.6 mph - N/A   Mostly Cloudy
4:55 AM 53.6 °F 51.8 °F 94% 29.84 in 5.0 mi SSW 5.8 mph - N/A   Overcast
5:15 AM 53.6 °F 51.8 °F 94% 29.83 in 5.0 mi SSW 11.5 mph 19.6 mph N/A   Overcast
5:35 AM 53.6 °F 48.2 °F 82% 29.83 in 5.0 mi South 9.2 mph - N/A   Mostly Cloudy
5:55 AM 53.6 °F 48.2 °F 82% 29.83 in 5.0 mi South 8.1 mph - N/A   Overcast
6:15 AM 53.6 °F 50.0 °F 88% 29.83 in 4.0 mi South 10.4 mph - N/A   Overcast
6:35 AM 53.6 °F 50.0 °F 88% 29.83 in 5.0 mi South 11.5 mph 16.1 mph 0.01 in Rain Light Rain
6:55 AM 53.6 °F 50.0 °F 88% 29.82 in 3.0 mi South 11.5 mph 17.3 mph 0.01 in Rain Light Rain
7:15 AM 53.6 °F 50.0 °F 88% 29.83 in 3.0 mi SW 11.5 mph 18.4 mph 0.01 in   Overcast
7:35 AM 55.4 °F 50.0 °F 82% 29.83 in 3.0 mi SSW 8.1 mph - 0.02 in Rain Light Rain
7:55 AM 53.6 °F 50.0 °F 88% 29.85 in 1.0 mi West 13.8 mph 19.6 mph 0.14 in Rain Light Rain
8:15 AM 50.0 °F 46.4 °F 87% 29.84 in 2.0 mi West 6.9 mph - 0.02 in Rain Light Rain
8:35 AM 50.0 °F 48.2 °F 94% 29.84 in 3.0 mi SW 9.2 mph - 0.02 in   Overcast
8:55 AM 51.8 °F 50.0 °F 94% 29.84 in 4.0 mi SSW 6.9 mph - 0.02 in   Overcast
9:15 AM 51.8 °F 50.0 °F 94% 29.85 in 4.0 mi SSW 3.5 mph - 0.01 in   Overcast
9:35 AM 53.6 °F 50.0 °F 88% 29.85 in 3.0 mi South 3.5 mph - 0.01 in   Overcast
9:55 AM 53.6 °F 50.0 °F 88% 29.86 in 2.5 mi South 8.1 mph - 0.04 in Rain Light Rain
10:15 AM 53.6 °F 50.0 °F 88% 29.86 in 1.0 mi SSE 5.8 mph - 0.03 in Rain Rain
10:35 AM 53.6 °F 51.8 °F 94% 29.87 in 4.0 mi WSW 6.9 mph - 0.03 in   Overcast
10:55 AM 55.4 °F 53.6 °F 94% 29.86 in 2.5 mi SW 9.2 mph - 0.03 in   Mostly Cloudy
11:15 AM 55.4 °F 53.6 °F 94% 29.87 in 3.0 mi West 12.7 mph 20.7 mph 0.02 in Rain Light Rain
11:35 AM 55.4 °F 53.6 °F 94% 29.88 in 5.0 mi West 12.7 mph 19.6 mph 0.02 in   Mostly Cloudy
11:55 AM 55.4 °F 53.6 °F 94% 29.88 in 5.0 mi West 10.4 mph - 0.02 in   Overcast
12:15 PM 57.2 °F 53.6 °F 88% 29.88 in 5.0 mi West 11.5 mph 16.1 mph N/A   Scattered Clouds
12:35 PM 57.2 °F 53.6 °F 88% 29.88 in 5.0 mi WNW 10.4 mph - N/A   Clear
12:55 PM 57.2 °F 53.6 °F 88% 29.88 in 5.0 mi WNW 11.5 mph - N/A   Haze
1:15 PM 57.2 °F 53.6 °F 88% 29.89 in 5.0 mi NW 11.5 mph - N/A   Mostly Cloudy
1:35 PM 57.2 °F 51.8 °F 82% 29.89 in 7.0 mi NW 9.2 mph - N/A   Partly Cloudy
1:55 PM 57.2 °F 51.8 °F 82% 29.89 in 5.0 mi WNW 8.1 mph - N/A   Haze
2:15 PM 57.2 °F 53.6 °F 88% 29.89 in 7.0 mi WNW 8.1 mph - N/A   Partly Cloudy
2:35 PM 57.2 °F 51.8 °F 82% 29.90 in 7.0 mi West 12.7 mph - N/A   Partly Cloudy
2:55 PM 57.2 °F 50.0 °F 77% 29.90 in 7.0 mi West 10.4 mph - N/A   Partly Cloudy
3:15 PM 57.2 °F 51.8 °F 82% 29.90 in 7.0 mi West 9.2 mph - N/A   Clear
3:35 PM - - N/A% 29.89 in 6.0 mi West 9.2 mph - N/A   Haze
3:55 PM 57.2 °F 51.8 °F 82% 29.90 in 7.0 mi West 10.4 mph - N/A   Clear
4:15 PM 57.2 °F 51.8 °F 82% 29.90 in 7.0 mi West 11.5 mph - N/A   Scattered Clouds
4:35 PM 57.2 °F 51.8 °F 82% 29.90 in 5.0 mi West 10.4 mph - N/A   Haze
4:55 PM 57.2 °F 51.8 °F 82% 29.90 in 5.0 mi West 9.2 mph - N/A   Haze
5:15 PM 57.2 °F 51.8 °F 82% 29.90 in 5.0 mi West 11.5 mph - N/A   Haze
5:35 PM 57.2 °F 51.8 °F 82% 29.90 in 5.0 mi West 10.4 mph - N/A   Haze
5:55 PM 57.2 °F 53.6 °F 88% 29.91 in 4.0 mi West 9.2 mph - N/A   Clear
6:15 PM 55.4 °F 51.8 °F 88% 29.91 in 3.0 mi West 9.2 mph - N/A   Clear
6:35 PM 55.4 °F 51.8 °F 88% 29.91 in 3.0 mi West 9.2 mph - N/A   Clear
6:55 PM 55.4 °F 51.8 °F 88% 29.91 in 3.0 mi West 8.1 mph - N/A   Clear
7:15 PM 55.4 °F 51.8 °F 88% 29.91 in 3.0 mi West 9.2 mph - N/A   Mostly Cloudy
7:35 PM 55.4 °F 51.8 °F 88% 29.92 in 3.0 mi West 9.2 mph - N/A   Mostly Cloudy
7:55 PM 55.4 °F 51.8 °F 88% 29.92 in 5.0 mi West 10.4 mph - N/A   Overcast
8:15 PM 55.4 °F 51.8 °F 88% 29.93 in 4.0 mi West 9.2 mph - N/A   Overcast
8:35 PM 55.4 °F 50.0 °F 82% 29.94 in 4.0 mi West 8.1 mph - N/A   Overcast
8:55 PM 53.6 °F 50.0 °F 88% 29.95 in 5.0 mi West 8.1 mph - N/A   Overcast
9:15 PM 55.4 °F 50.0 °F 82% 29.95 in 5.0 mi West 9.2 mph - N/A   Overcast
9:35 PM 53.6 °F 50.0 °F 88% 29.96 in 4.0 mi West 6.9 mph - N/A   Overcast
9:55 PM 53.6 °F 50.0 °F 88% 29.96 in 5.0 mi West 6.9 mph - N/A   Overcast
10:15 PM 53.6 °F 50.0 °F 88% 29.97 in 4.0 mi West 5.8 mph - N/A   Overcast
10:35 PM 53.6 °F 50.0 °F 88% 29.97 in 4.0 mi West 5.8 mph - N/A   Overcast
10:55 PM 53.6 °F 50.0 °F 88% 29.98 in 4.0 mi West 4.6 mph - N/A   Overcast
11:15 PM 53.6 °F 50.0 °F 88% 29.99 in 3.0 mi West 5.8 mph - N/A   Overcast
11:35 PM 53.6 °F 50.0 °F 88% 29.99 in 4.0 mi West 5.8 mph - N/A   Overcast
11:55 PM 53.6 °F 50.0 °F 88% 30.00 in 5.0 mi WSW 5.8 mph - N/A   Overcast